Year,Month,Day,Hour,Minute,Value (Times are PST for temperature in C)
2006,12,14,00,00,4.80
2006,12,14,00,01,4.80
2006,12,14,00,02,4.80
2006,12,14,00,03,4.80
2006,12,14,00,04,4.80
2006,12,14,00,05,4.80
2006,12,14,00,06,4.80
2006,12,14,00,07,4.70
2006,12,14,00,08,4.70
2006,12,14,00,09,4.70
2006,12,14,00,10,4.70
2006,12,14,00,11,4.70
2006,12,14,00,12,4.70
2006,12,14,00,13,4.70
2006,12,14,00,14,4.60
2006,12,14,00,15,4.60
2006,12,14,00,16,4.60
2006,12,14,00,17,4.60
2006,12,14,00,18,4.60
2006,12,14,00,19,4.60
2006,12,14,00,20,4.60
2006,12,14,00,21,4.50
2006,12,14,00,22,4.40
2006,12,14,00,23,4.20
2006,12,14,00,24,4.10
2006,12,14,00,25,4.00
2006,12,14,00,26,3.90
2006,12,14,00,27,3.80
2006,12,14,00,28,3.70
2006,12,14,00,29,3.60
2006,12,14,00,30,3.60
2006,12,14,00,31,3.60
2006,12,14,00,32,3.50
2006,12,14,00,33,3.50
2006,12,14,00,34,3.40
2006,12,14,00,35,3.40
2006,12,14,00,36,3.30
2006,12,14,00,37,3.30
2006,12,14,00,38,3.30
2006,12,14,00,39,3.30
2006,12,14,00,40,3.20
2006,12,14,00,41,3.20
2006,12,14,00,42,3.20
2006,12,14,00,43,3.20
2006,12,14,00,44,3.10
2006,12,14,00,45,3.10
2006,12,14,00,46,3.10
2006,12,14,00,47,3.10
2006,12,14,00,48,3.10
2006,12,14,00,49,3.10
2006,12,14,00,50,3.10
2006,12,14,00,51,3.10
2006,12,14,00,52,3.10
2006,12,14,00,53,3.10
2006,12,14,00,54,3.10
2006,12,14,00,55,3.10
2006,12,14,00,56,3.10
2006,12,14,00,57,3.10
2006,12,14,00,58,3.10
2006,12,14,00,59,3.10
2006,12,14,01,00,3.10
2006,12,14,01,01,3.10
2006,12,14,01,02,3.10
2006,12,14,01,03,3.10
2006,12,14,01,04,3.10
2006,12,14,01,05,3.10
2006,12,14,01,06,3.10
2006,12,14,01,07,3.10
2006,12,14,01,08,3.20
2006,12,14,01,09,3.20
2006,12,14,01,10,3.20
2006,12,14,01,11,3.10
2006,12,14,01,12,3.00
2006,12,14,01,13,2.80
2006,12,14,01,14,2.80
2006,12,14,01,15,2.70
2006,12,14,01,16,2.70
2006,12,14,01,17,2.70
2006,12,14,01,18,2.70
2006,12,14,01,19,2.70
2006,12,14,01,20,2.70
2006,12,14,01,21,2.60
2006,12,14,01,22,2.50
2006,12,14,01,23,2.50
2006,12,14,01,24,2.40
2006,12,14,01,25,2.30
2006,12,14,01,26,2.20
2006,12,14,01,27,2.20
2006,12,14,01,28,2.20
2006,12,14,01,29,2.10
2006,12,14,01,30,2.10
2006,12,14,01,31,2.00
2006,12,14,01,32,2.00
2006,12,14,01,33,2.00
2006,12,14,01,34,1.90
2006,12,14,01,35,1.90
2006,12,14,01,36,1.90
2006,12,14,01,37,1.90
2006,12,14,01,38,1.90
2006,12,14,01,39,1.90
2006,12,14,01,40,1.80
2006,12,14,01,41,1.80
2006,12,14,01,42,1.80
2006,12,14,01,43,1.80
2006,12,14,01,44,1.80
2006,12,14,01,45,1.80
2006,12,14,01,46,1.80
2006,12,14,01,47,1.80
2006,12,14,01,48,1.80
2006,12,14,01,49,1.80
2006,12,14,01,50,1.80
2006,12,14,01,51,1.80
2006,12,14,01,52,1.80
2006,12,14,01,53,1.90
2006,12,14,01,54,1.90
2006,12,14,01,55,1.90
2006,12,14,01,56,1.90
2006,12,14,01,57,2.00
2006,12,14,01,58,2.00
2006,12,14,01,59,2.00
2006,12,14,02,00,2.00
2006,12,14,02,01,2.00
2006,12,14,02,02,2.00
2006,12,14,02,03,2.00
2006,12,14,02,04,2.00
2006,12,14,02,05,2.00
2006,12,14,02,06,2.00
2006,12,14,02,07,2.10
2006,12,14,02,08,2.10
2006,12,14,02,09,2.10
2006,12,14,02,10,2.00
2006,12,14,02,11,2.10
2006,12,14,02,12,2.10
2006,12,14,02,13,2.10
2006,12,14,02,14,2.10
2006,12,14,02,15,2.10
2006,12,14,02,16,2.20
2006,12,14,02,17,2.20
2006,12,14,02,18,2.20
2006,12,14,02,19,2.20
2006,12,14,02,20,2.20
2006,12,14,02,21,2.20
2006,12,14,02,22,2.20
2006,12,14,02,23,2.20
2006,12,14,02,24,2.20
2006,12,14,02,25,2.20
2006,12,14,02,26,2.20
2006,12,14,02,27,2.20
2006,12,14,02,28,2.20
2006,12,14,02,29,2.20
2006,12,14,02,30,2.20
2006,12,14,02,31,2.20
2006,12,14,02,32,2.20
2006,12,14,02,33,2.10
2006,12,14,02,34,2.10
2006,12,14,02,35,2.10
2006,12,14,02,36,2.00
2006,12,14,02,37,2.00
2006,12,14,02,38,2.00
2006,12,14,02,39,1.90
2006,12,14,02,40,1.90
2006,12,14,02,41,1.90
2006,12,14,02,42,1.80
2006,12,14,02,43,1.80
2006,12,14,02,44,1.80
2006,12,14,02,45,1.80
2006,12,14,02,46,1.80
2006,12,14,02,47,1.80
2006,12,14,02,48,1.80
2006,12,14,02,49,1.80
2006,12,14,02,50,1.80
2006,12,14,02,51,1.80
2006,12,14,02,52,1.80
2006,12,14,02,53,1.70
2006,12,14,02,54,1.70
2006,12,14,02,55,1.60
2006,12,14,02,56,1.60
2006,12,14,02,57,1.50
2006,12,14,02,58,1.50
2006,12,14,02,59,1.50
2006,12,14,03,00,1.50
2006,12,14,03,01,1.40
2006,12,14,03,02,1.40
2006,12,14,03,03,1.50
2006,12,14,03,04,1.50
2006,12,14,03,05,1.50
2006,12,14,03,06,1.50
2006,12,14,03,07,1.50
2006,12,14,03,08,1.50
2006,12,14,03,09,1.50
2006,12,14,03,10,1.50
2006,12,14,03,11,1.50
2006,12,14,03,12,1.50
2006,12,14,03,13,1.50
2006,12,14,03,14,1.40
2006,12,14,03,15,1.40
2006,12,14,03,16,1.40
2006,12,14,03,17,1.40
2006,12,14,03,18,1.40
2006,12,14,03,19,1.40
2006,12,14,03,20,1.40
2006,12,14,03,21,1.40
2006,12,14,03,22,1.50
2006,12,14,03,23,1.40
2006,12,14,03,24,1.50
2006,12,14,03,25,1.50
2006,12,14,03,26,1.50
2006,12,14,03,27,1.60
2006,12,14,03,28,1.60
2006,12,14,03,29,1.70
2006,12,14,03,30,1.70
2006,12,14,03,31,1.70
2006,12,14,03,32,1.70
2006,12,14,03,33,1.70
2006,12,14,03,34,1.70
2006,12,14,03,35,1.80
2006,12,14,03,36,1.80
2006,12,14,03,37,1.80
2006,12,14,03,38,1.80
2006,12,14,03,39,1.80
2006,12,14,03,40,1.80
2006,12,14,03,41,1.80
2006,12,14,03,42,1.90
2006,12,14,03,43,1.90
2006,12,14,03,44,2.00
2006,12,14,03,45,2.00
2006,12,14,03,46,2.10
2006,12,14,03,47,2.20
2006,12,14,03,48,2.20
2006,12,14,03,49,2.30
2006,12,14,03,50,2.40
2006,12,14,03,51,2.50
2006,12,14,03,52,2.60
2006,12,14,03,53,2.60
2006,12,14,03,54,2.70
2006,12,14,03,55,2.70
2006,12,14,03,56,2.70
2006,12,14,03,57,2.70
2006,12,14,03,58,2.70
2006,12,14,03,59,2.80
2006,12,14,04,00,2.80
2006,12,14,04,01,2.80
2006,12,14,04,02,2.80
2006,12,14,04,03,2.80
2006,12,14,04,04,2.80
2006,12,14,04,05,2.80
2006,12,14,04,06,2.90
2006,12,14,04,07,2.90
2006,12,14,04,08,3.00
2006,12,14,04,09,3.10
2006,12,14,04,10,3.10
2006,12,14,04,11,3.20
2006,12,14,04,12,3.20
2006,12,14,04,13,3.30
2006,12,14,04,14,3.30
2006,12,14,04,15,3.40
2006,12,14,04,16,3.40
2006,12,14,04,17,3.40
2006,12,14,04,18,3.40
2006,12,14,04,19,3.50
2006,12,14,04,20,3.40
2006,12,14,04,21,3.40
2006,12,14,04,22,3.40
2006,12,14,04,23,3.40
2006,12,14,04,24,3.40
2006,12,14,04,25,3.40
2006,12,14,04,26,3.40
2006,12,14,04,27,3.40
2006,12,14,04,28,3.40
2006,12,14,04,29,3.40
2006,12,14,04,30,3.40
2006,12,14,04,31,3.50
2006,12,14,04,32,3.50
2006,12,14,04,33,3.50
2006,12,14,04,34,3.60
2006,12,14,04,35,3.60
2006,12,14,04,36,3.60
2006,12,14,04,37,3.50
2006,12,14,04,38,3.50
2006,12,14,04,39,3.40
2006,12,14,04,40,3.30
2006,12,14,04,41,3.30
2006,12,14,04,42,3.30
2006,12,14,04,43,3.20
2006,12,14,04,44,3.20
2006,12,14,04,45,3.20
2006,12,14,04,46,3.10
2006,12,14,04,47,3.10
2006,12,14,04,48,3.10
2006,12,14,04,49,3.10
2006,12,14,04,50,3.10
2006,12,14,04,51,3.10
2006,12,14,04,52,3.10
2006,12,14,04,53,3.00
2006,12,14,04,54,2.90
2006,12,14,04,55,2.90
2006,12,14,04,56,2.90
2006,12,14,04,57,2.90
2006,12,14,04,58,2.90
2006,12,14,04,59,2.90
2006,12,14,05,00,2.90
2006,12,14,05,01,2.90
2006,12,14,05,02,2.90
2006,12,14,05,03,2.90
2006,12,14,05,04,2.90
2006,12,14,05,05,2.90
2006,12,14,05,06,2.80
2006,12,14,05,07,2.80
2006,12,14,05,08,2.80
2006,12,14,05,09,2.70
2006,12,14,05,10,2.70
2006,12,14,05,11,2.70
2006,12,14,05,12,2.70
2006,12,14,05,13,2.70
2006,12,14,05,14,2.70
2006,12,14,05,15,2.70
2006,12,14,05,16,2.70
2006,12,14,05,17,2.70
2006,12,14,05,18,2.70
2006,12,14,05,19,2.70
2006,12,14,05,20,2.70
2006,12,14,05,21,2.70
2006,12,14,05,22,2.70
2006,12,14,05,23,2.70
2006,12,14,05,24,2.70
2006,12,14,05,25,2.70
2006,12,14,05,26,2.70
2006,12,14,05,27,2.70
2006,12,14,05,28,2.70
2006,12,14,05,29,2.70
2006,12,14,05,30,2.60
2006,12,14,05,31,2.60
2006,12,14,05,32,2.60
2006,12,14,05,33,2.60
2006,12,14,05,34,2.60
2006,12,14,05,35,2.60
2006,12,14,05,36,2.60
2006,12,14,05,37,2.50
2006,12,14,05,38,2.50
2006,12,14,05,39,2.50
2006,12,14,05,40,2.50
2006,12,14,05,41,2.50
2006,12,14,05,42,2.50
2006,12,14,05,43,2.50
2006,12,14,05,44,2.50
2006,12,14,05,45,2.50
2006,12,14,05,46,2.50
2006,12,14,05,47,2.50
2006,12,14,05,48,2.50
2006,12,14,05,49,2.50
2006,12,14,05,50,2.50
2006,12,14,05,51,2.40
2006,12,14,05,52,2.40
2006,12,14,05,53,2.40
2006,12,14,05,54,2.40
2006,12,14,05,55,2.40
2006,12,14,05,56,2.50
2006,12,14,05,57,2.50
2006,12,14,05,58,2.50
2006,12,14,05,59,2.50
2006,12,14,06,00,2.50
2006,12,14,06,01,2.50
2006,12,14,06,02,2.50
2006,12,14,06,03,2.50
2006,12,14,06,04,2.50
2006,12,14,06,05,2.50
2006,12,14,06,06,2.50
2006,12,14,06,07,2.60
2006,12,14,06,08,2.60
2006,12,14,06,09,2.60
2006,12,14,06,10,2.70
2006,12,14,06,11,2.70
2006,12,14,06,12,2.70
2006,12,14,06,13,2.70
2006,12,14,06,14,2.70
2006,12,14,06,15,2.70
2006,12,14,06,16,2.70
2006,12,14,06,17,2.70
2006,12,14,06,18,2.70
2006,12,14,06,19,2.70
2006,12,14,06,20,2.70
2006,12,14,06,21,2.70
2006,12,14,06,22,2.60
2006,12,14,06,23,2.60
2006,12,14,06,24,2.60
2006,12,14,06,25,2.60
2006,12,14,06,26,2.60
2006,12,14,06,27,2.60
2006,12,14,06,28,2.60
2006,12,14,06,29,2.70
2006,12,14,06,30,2.70
2006,12,14,06,31,2.70
2006,12,14,06,32,2.70
2006,12,14,06,33,2.70
2006,12,14,06,34,2.70
2006,12,14,06,35,2.70
2006,12,14,06,36,2.70
2006,12,14,06,37,2.70
2006,12,14,06,38,2.70
2006,12,14,06,39,2.70
2006,12,14,06,40,2.80
2006,12,14,06,41,2.80
2006,12,14,06,42,3.00
2006,12,14,06,43,3.20
2006,12,14,06,44,3.30
2006,12,14,06,45,3.30
2006,12,14,06,46,3.40
2006,12,14,06,47,3.50
2006,12,14,06,48,3.50
2006,12,14,06,49,3.50
2006,12,14,06,50,3.50
2006,12,14,06,51,3.60
2006,12,14,06,52,3.60
2006,12,14,06,53,3.60
2006,12,14,06,54,3.60
2006,12,14,06,55,3.70
2006,12,14,06,56,3.80
2006,12,14,06,57,3.90
2006,12,14,06,58,3.90
2006,12,14,06,59,3.90
2006,12,14,07,00,3.90
2006,12,14,07,01,3.90
2006,12,14,07,02,3.80
2006,12,14,07,03,3.80
2006,12,14,07,04,3.80
2006,12,14,07,05,3.80
2006,12,14,07,06,3.90
2006,12,14,07,07,3.90
2006,12,14,07,08,3.90
2006,12,14,07,09,4.00
2006,12,14,07,10,4.00
2006,12,14,07,11,4.00
2006,12,14,07,12,4.00
2006,12,14,07,13,4.00
2006,12,14,07,14,4.00
2006,12,14,07,15,3.90
2006,12,14,07,16,3.90
2006,12,14,07,17,3.80
2006,12,14,07,18,3.80
2006,12,14,07,19,3.80
2006,12,14,07,20,3.70
2006,12,14,07,21,3.70
2006,12,14,07,22,3.60
2006,12,14,07,23,3.60
2006,12,14,07,24,3.70
2006,12,14,07,25,3.80
2006,12,14,07,26,4.00
2006,12,14,07,27,4.20
2006,12,14,07,28,4.30
2006,12,14,07,29,4.40
2006,12,14,07,30,4.50
2006,12,14,07,31,4.60
2006,12,14,07,32,4.60
2006,12,14,07,33,4.60
2006,12,14,07,34,4.60
2006,12,14,07,35,4.60
2006,12,14,07,36,4.60
2006,12,14,07,37,4.60
2006,12,14,07,38,4.60
2006,12,14,07,39,4.60
2006,12,14,07,40,4.60
2006,12,14,07,41,4.60
2006,12,14,07,42,4.60
2006,12,14,07,43,4.60
2006,12,14,07,44,4.70
2006,12,14,07,45,4.80
2006,12,14,07,46,4.80
2006,12,14,07,47,4.90
2006,12,14,07,48,4.90
2006,12,14,07,49,4.90
2006,12,14,07,50,4.90
2006,12,14,07,51,4.90
2006,12,14,07,52,4.80
2006,12,14,07,53,4.80
2006,12,14,07,54,4.80
2006,12,14,07,55,4.80
2006,12,14,07,56,4.80
2006,12,14,07,57,4.80
2006,12,14,07,58,4.80
2006,12,14,07,59,4.70
2006,12,14,08,00,4.70
2006,12,14,08,01,4.70
2006,12,14,08,02,4.70
2006,12,14,08,03,4.70
2006,12,14,08,04,4.70
2006,12,14,08,05,4.60
2006,12,14,08,06,4.60
2006,12,14,08,07,4.60
2006,12,14,08,08,4.60
2006,12,14,08,09,4.60
2006,12,14,08,10,4.60
2006,12,14,08,11,4.60
2006,12,14,08,12,4.60
2006,12,14,08,13,4.60
2006,12,14,08,14,4.60
2006,12,14,08,15,4.60
2006,12,14,08,16,4.60
2006,12,14,08,17,4.60
2006,12,14,08,18,4.60
2006,12,14,08,19,4.60
2006,12,14,08,20,4.60
2006,12,14,08,21,4.60
2006,12,14,08,22,4.60
2006,12,14,08,23,4.60
2006,12,14,08,24,4.60
2006,12,14,08,25,4.60
2006,12,14,08,26,4.60
2006,12,14,08,27,4.60
2006,12,14,08,28,4.60
2006,12,14,08,29,4.60
2006,12,14,08,30,4.60
2006,12,14,08,31,4.60
2006,12,14,08,32,4.60
2006,12,14,08,33,4.60
2006,12,14,08,34,4.60
2006,12,14,08,35,4.60
2006,12,14,08,36,4.60
2006,12,14,08,37,4.60
2006,12,14,08,38,4.60
2006,12,14,08,39,4.70
2006,12,14,08,40,4.70
2006,12,14,08,41,4.70
2006,12,14,08,42,4.70
2006,12,14,08,43,4.70
2006,12,14,08,44,4.70
2006,12,14,08,45,4.70
2006,12,14,08,46,4.70
2006,12,14,08,47,4.70
2006,12,14,08,48,4.80
2006,12,14,08,49,4.80
2006,12,14,08,50,4.80
2006,12,14,08,51,4.80
2006,12,14,08,52,4.80
2006,12,14,08,53,4.80
2006,12,14,08,54,4.80
2006,12,14,08,55,4.80
2006,12,14,08,56,4.80
2006,12,14,08,57,4.80
2006,12,14,08,58,4.90
2006,12,14,08,59,4.90
2006,12,14,09,00,4.90
2006,12,14,09,01,4.90
2006,12,14,09,02,4.90
2006,12,14,09,03,4.90
2006,12,14,09,04,5.10
2006,12,14,09,05,5.10
2006,12,14,09,06,5.10
2006,12,14,09,07,5.10
2006,12,14,09,08,5.10
2006,12,14,09,09,5.10
2006,12,14,09,10,5.10
2006,12,14,09,11,5.10
2006,12,14,09,12,5.10
2006,12,14,09,13,5.10
2006,12,14,09,14,5.10
2006,12,14,09,15,5.10
2006,12,14,09,16,5.10
2006,12,14,09,17,5.10
2006,12,14,09,18,5.10
2006,12,14,09,19,5.10
2006,12,14,09,20,5.10
2006,12,14,09,21,5.10
2006,12,14,09,22,5.10
2006,12,14,09,23,5.10
2006,12,14,09,24,5.10
2006,12,14,09,25,5.10
2006,12,14,09,26,5.10
2006,12,14,09,27,5.10
2006,12,14,09,28,5.10
2006,12,14,09,29,5.10
2006,12,14,09,30,5.10
2006,12,14,09,31,5.10
2006,12,14,09,32,5.10
2006,12,14,09,33,5.10
2006,12,14,09,34,5.10
2006,12,14,09,35,5.10
2006,12,14,09,36,5.10
2006,12,14,09,37,5.10
2006,12,14,09,38,5.10
2006,12,14,09,39,5.10
2006,12,14,09,40,5.10
2006,12,14,09,41,5.10
2006,12,14,09,42,5.10
2006,12,14,09,43,5.00
2006,12,14,09,44,4.90
2006,12,14,09,45,4.90
2006,12,14,09,46,4.90
2006,12,14,09,47,4.90
2006,12,14,09,48,4.90
2006,12,14,09,49,4.90
2006,12,14,09,50,4.90
2006,12,14,09,51,4.90
2006,12,14,09,52,4.90
2006,12,14,09,53,4.90
2006,12,14,09,54,4.90
2006,12,14,09,55,4.90
2006,12,14,09,56,4.90
2006,12,14,09,57,4.90
2006,12,14,09,58,4.90
2006,12,14,09,59,5.00
2006,12,14,10,00,5.10
2006,12,14,10,01,5.10
2006,12,14,10,02,5.10
2006,12,14,10,03,5.10
2006,12,14,10,04,5.10
2006,12,14,10,05,5.10
2006,12,14,10,06,5.10
2006,12,14,10,07,5.10
2006,12,14,10,08,5.10
2006,12,14,10,09,5.10
2006,12,14,10,10,5.10
2006,12,14,10,11,5.00
2006,12,14,10,12,4.90
2006,12,14,10,13,4.90
2006,12,14,10,14,4.90
2006,12,14,10,15,4.90
2006,12,14,10,16,4.90
2006,12,14,10,17,4.90
2006,12,14,10,18,4.90
2006,12,14,10,19,4.90
2006,12,14,10,20,4.80
2006,12,14,10,21,4.80
2006,12,14,10,22,4.80
2006,12,14,10,23,4.70
2006,12,14,10,24,4.70
2006,12,14,10,25,4.70
2006,12,14,10,26,4.70
2006,12,14,10,27,4.70
2006,12,14,10,28,4.70
2006,12,14,10,29,4.70
2006,12,14,10,30,4.60
2006,12,14,10,31,4.60
2006,12,14,10,32,4.60
2006,12,14,10,33,4.60
2006,12,14,10,34,4.60
2006,12,14,10,35,4.60
2006,12,14,10,36,4.60
2006,12,14,10,37,4.60
2006,12,14,10,38,4.60
2006,12,14,10,39,4.60
2006,12,14,10,40,4.50
2006,12,14,10,41,4.50
2006,12,14,10,42,4.50
2006,12,14,10,43,4.40
2006,12,14,10,44,4.40
2006,12,14,10,45,4.40
2006,12,14,10,46,4.40
2006,12,14,10,47,4.30
2006,12,14,10,48,4.30
2006,12,14,10,49,4.30
2006,12,14,10,50,4.30
2006,12,14,10,51,4.30
2006,12,14,10,52,4.20
2006,12,14,10,53,4.20
2006,12,14,10,54,4.20
2006,12,14,10,55,4.20
2006,12,14,10,56,4.20
2006,12,14,10,57,4.20
2006,12,14,10,58,4.20
2006,12,14,10,59,4.20
2006,12,14,11,00,4.20
2006,12,14,11,01,4.20
2006,12,14,11,02,4.20
2006,12,14,11,03,4.20
2006,12,14,11,04,4.20
2006,12,14,11,05,4.20
2006,12,14,11,06,4.20
2006,12,14,11,07,4.10
2006,12,14,11,08,4.10
2006,12,14,11,09,4.10
2006,12,14,11,10,4.10
2006,12,14,11,11,4.00
2006,12,14,11,12,4.00
2006,12,14,11,13,4.00
2006,12,14,11,14,4.00
2006,12,14,11,15,3.90
2006,12,14,11,16,3.90
2006,12,14,11,17,3.90
2006,12,14,11,18,3.80
2006,12,14,11,19,3.80
2006,12,14,11,20,3.80
2006,12,14,11,21,3.80
2006,12,14,11,22,3.80
2006,12,14,11,23,3.80
2006,12,14,11,24,3.80
2006,12,14,11,25,3.80
2006,12,14,11,26,3.70
2006,12,14,11,27,3.70
2006,12,14,11,28,3.70
2006,12,14,11,29,3.70
2006,12,14,11,30,3.70
2006,12,14,11,31,3.60
2006,12,14,11,32,3.60
2006,12,14,11,33,3.60
2006,12,14,11,34,3.50
2006,12,14,11,35,3.50
2006,12,14,11,36,3.50
2006,12,14,11,37,3.40
2006,12,14,11,38,3.40
2006,12,14,11,39,3.30
2006,12,14,11,40,3.30
2006,12,14,11,41,3.30
2006,12,14,11,42,3.30
2006,12,14,11,43,3.30
2006,12,14,11,44,3.30
2006,12,14,11,45,3.20
2006,12,14,11,46,3.20
2006,12,14,11,47,3.20
2006,12,14,11,48,3.20
2006,12,14,11,49,3.20
2006,12,14,11,50,3.20
2006,12,14,11,51,3.20
2006,12,14,11,52,3.20
2006,12,14,11,53,3.20
2006,12,14,11,54,3.20
2006,12,14,11,55,3.20
2006,12,14,11,56,3.20
2006,12,14,11,57,3.30
2006,12,14,11,58,3.30
2006,12,14,11,59,3.30
2006,12,14,12,00,3.30
2006,12,14,12,01,3.30
2006,12,14,12,02,3.30
2006,12,14,12,03,3.30
2006,12,14,12,04,3.30
2006,12,14,12,05,3.30
2006,12,14,12,06,3.30
2006,12,14,12,07,3.30
2006,12,14,12,08,3.30
2006,12,14,12,09,3.30
2006,12,14,12,10,3.30
2006,12,14,12,11,3.30
2006,12,14,12,12,3.30
2006,12,14,12,13,3.30
2006,12,14,12,14,3.30
2006,12,14,12,15,3.20
2006,12,14,12,16,3.20
2006,12,14,12,17,3.20
2006,12,14,12,18,3.10
2006,12,14,12,19,3.10
2006,12,14,12,20,3.10
2006,12,14,12,21,3.10
2006,12,14,12,22,3.10
2006,12,14,12,23,3.10
2006,12,14,12,24,3.00
2006,12,14,12,25,2.90
2006,12,14,12,26,2.90
2006,12,14,12,27,2.90
2006,12,14,12,28,2.90
2006,12,14,12,29,2.90
2006,12,14,12,30,2.90
2006,12,14,12,31,2.90
2006,12,14,12,32,2.90
2006,12,14,12,33,2.90
2006,12,14,12,34,2.90
2006,12,14,12,35,3.10
2006,12,14,12,36,3.10
2006,12,14,12,37,3.10
2006,12,14,12,38,3.10
2006,12,14,12,39,3.10
2006,12,14,12,40,3.10
2006,12,14,12,41,3.00
2006,12,14,12,42,2.90
2006,12,14,12,43,2.90
2006,12,14,12,44,2.90
2006,12,14,12,45,2.90
2006,12,14,12,46,2.90
2006,12,14,12,47,2.90
2006,12,14,12,48,2.80
2006,12,14,12,49,2.80
2006,12,14,12,50,2.80
2006,12,14,12,51,2.80
2006,12,14,12,52,2.80
2006,12,14,12,53,2.80
2006,12,14,12,54,2.80
2006,12,14,12,55,2.90
2006,12,14,12,56,2.90
2006,12,14,12,57,2.90
2006,12,14,12,58,2.80
2006,12,14,12,59,2.80
2006,12,14,13,00,2.90
2006,12,14,13,01,2.90
2006,12,14,13,02,2.90
2006,12,14,13,03,2.90
2006,12,14,13,04,3.00
2006,12,14,13,05,3.10
2006,12,14,13,06,3.10
2006,12,14,13,07,3.10
2006,12,14,13,08,3.10
2006,12,14,13,09,3.10
2006,12,14,13,10,3.10
2006,12,14,13,11,3.10
2006,12,14,13,12,3.10
2006,12,14,13,13,3.20
2006,12,14,13,14,3.20
2006,12,14,13,15,3.20
2006,12,14,13,16,3.20
2006,12,14,13,17,3.20
2006,12,14,13,18,3.20
2006,12,14,13,19,3.20
2006,12,14,13,20,3.30
2006,12,14,13,21,3.30
2006,12,14,13,22,3.30
2006,12,14,13,23,3.30
2006,12,14,13,24,3.30
2006,12,14,13,25,3.30
2006,12,14,13,26,3.30
2006,12,14,13,27,3.30
2006,12,14,13,28,3.30
2006,12,14,13,29,3.30
2006,12,14,13,30,3.30
2006,12,14,13,31,3.30
2006,12,14,13,32,3.30
2006,12,14,13,33,3.30
2006,12,14,13,34,3.30
2006,12,14,13,35,3.30
2006,12,14,13,36,3.30
2006,12,14,13,37,3.30
2006,12,14,13,38,3.30
2006,12,14,13,39,3.30
2006,12,14,13,40,3.30
2006,12,14,13,41,3.30
2006,12,14,13,42,3.30
2006,12,14,13,43,3.30
2006,12,14,13,44,3.30
2006,12,14,13,45,3.30
2006,12,14,13,46,3.30
2006,12,14,13,47,3.30
2006,12,14,13,48,3.30
2006,12,14,13,49,3.30
2006,12,14,13,50,3.30
2006,12,14,13,51,3.30
2006,12,14,13,52,3.30
2006,12,14,13,53,3.30
2006,12,14,13,54,3.30
2006,12,14,13,55,3.30
2006,12,14,13,56,3.30
2006,12,14,13,57,3.30
2006,12,14,13,58,3.30
2006,12,14,13,59,3.30
2006,12,14,14,00,3.30
2006,12,14,14,01,3.40
2006,12,14,14,02,3.40
2006,12,14,14,03,3.40
2006,12,14,14,04,3.40
2006,12,14,14,05,3.40
2006,12,14,14,06,3.50
2006,12,14,14,07,3.50
2006,12,14,14,08,3.50
2006,12,14,14,09,3.50
2006,12,14,14,10,3.50
2006,12,14,14,11,3.50
2006,12,14,14,12,3.50
2006,12,14,14,13,3.50
2006,12,14,14,14,3.50
2006,12,14,14,15,3.50
2006,12,14,14,16,3.50
2006,12,14,14,17,3.50
2006,12,14,14,18,3.50
2006,12,14,14,19,3.60
2006,12,14,14,20,3.60
2006,12,14,14,21,3.60
2006,12,14,14,22,3.60
2006,12,14,14,23,3.60
2006,12,14,14,24,3.50
2006,12,14,14,25,3.40
2006,12,14,14,26,3.30
2006,12,14,14,27,3.20
2006,12,14,14,28,3.20
2006,12,14,14,29,3.10
2006,12,14,14,30,3.10
2006,12,14,14,31,3.20
2006,12,14,14,32,3.30
2006,12,14,14,33,3.30
2006,12,14,14,34,3.30
2006,12,14,14,35,3.30
2006,12,14,14,36,3.30
2006,12,14,14,37,3.20
2006,12,14,14,38,3.20
2006,12,14,14,39,3.10
2006,12,14,14,40,3.10
2006,12,14,14,41,3.10
2006,12,14,14,42,3.10
2006,12,14,14,43,3.10
2006,12,14,14,44,3.10
2006,12,14,14,45,3.10
2006,12,14,14,46,3.10
2006,12,14,14,47,3.10
2006,12,14,14,48,3.10
2006,12,14,14,49,3.10
2006,12,14,14,50,3.10
2006,12,14,14,51,3.10
2006,12,14,14,52,3.10
2006,12,14,14,53,3.10
2006,12,14,14,54,3.10
2006,12,14,14,55,3.10
2006,12,14,14,56,3.10
2006,12,14,14,57,3.10
2006,12,14,14,58,3.10
2006,12,14,14,59,3.10
2006,12,14,15,00,3.10
2006,12,14,15,01,3.10
2006,12,14,15,02,3.10
2006,12,14,15,03,3.10
2006,12,14,15,04,3.10
2006,12,14,15,05,3.10
2006,12,14,15,06,3.20
2006,12,14,15,07,3.20
2006,12,14,15,08,3.10
2006,12,14,15,09,3.10
2006,12,14,15,10,3.10
2006,12,14,15,11,3.10
2006,12,14,15,12,3.10
2006,12,14,15,13,3.10
2006,12,14,15,14,3.00
2006,12,14,15,15,2.90
2006,12,14,15,16,2.90
2006,12,14,15,17,2.90
2006,12,14,15,18,2.90
2006,12,14,15,19,2.90
2006,12,14,15,20,2.90
2006,12,14,15,21,2.90
2006,12,14,15,22,2.80
2006,12,14,15,23,2.80
2006,12,14,15,24,2.80
2006,12,14,15,25,2.80
2006,12,14,15,26,2.70
2006,12,14,15,27,2.70
2006,12,14,15,28,2.70
2006,12,14,15,29,2.60
2006,12,14,15,30,2.60
2006,12,14,15,31,2.50
2006,12,14,15,32,2.50
2006,12,14,15,33,2.50
2006,12,14,15,34,2.50
2006,12,14,15,35,2.40
2006,12,14,15,36,2.40
2006,12,14,15,37,2.30
2006,12,14,15,38,2.30
2006,12,14,15,39,2.30
2006,12,14,15,40,2.30
2006,12,14,15,41,2.30
2006,12,14,15,42,2.20
2006,12,14,15,43,2.20
2006,12,14,15,44,2.20
2006,12,14,15,45,2.20
2006,12,14,15,46,2.20
2006,12,14,15,47,2.20
2006,12,14,15,48,2.20
2006,12,14,15,49,2.20
2006,12,14,15,50,2.20
2006,12,14,15,51,2.20
2006,12,14,15,52,2.20
2006,12,14,15,53,2.20
2006,12,14,15,54,2.20
2006,12,14,15,55,2.20
2006,12,14,15,56,2.20
2006,12,14,15,57,2.20
2006,12,14,15,58,2.20
2006,12,14,15,59,2.20
2006,12,14,16,00,2.20
2006,12,14,16,01,2.20
2006,12,14,16,02,2.20
2006,12,14,16,03,2.20
2006,12,14,16,04,2.20
2006,12,14,16,05,2.20
2006,12,14,16,06,2.20
2006,12,14,16,07,2.20
2006,12,14,16,08,2.20
2006,12,14,16,09,2.20
2006,12,14,16,10,2.20
2006,12,14,16,11,2.20
2006,12,14,16,12,2.20
2006,12,14,16,13,2.20
2006,12,14,16,14,2.20
2006,12,14,16,15,2.20
2006,12,14,16,16,2.20
2006,12,14,16,17,2.20
2006,12,14,16,18,2.20
2006,12,14,16,19,2.20
2006,12,14,16,20,2.30
2006,12,14,16,21,2.30
2006,12,14,16,22,2.30
2006,12,14,16,23,2.30
2006,12,14,16,24,2.30
2006,12,14,16,25,2.40
2006,12,14,16,26,2.40
2006,12,14,16,27,2.40
2006,12,14,16,28,2.40
2006,12,14,16,29,2.40
2006,12,14,16,30,2.40
2006,12,14,16,31,2.40
2006,12,14,16,32,2.40
2006,12,14,16,33,2.40
2006,12,14,16,34,2.40
2006,12,14,16,35,2.40
2006,12,14,16,36,2.40
2006,12,14,16,37,2.40
2006,12,14,16,38,2.40
2006,12,14,16,39,2.40
2006,12,14,16,40,2.40
2006,12,14,16,41,2.40
2006,12,14,16,42,2.40
2006,12,14,16,43,2.40
2006,12,14,16,44,2.50
2006,12,14,16,45,2.50
2006,12,14,16,46,2.50
2006,12,14,16,47,2.50
2006,12,14,16,48,2.50
2006,12,14,16,49,2.50
2006,12,14,16,50,2.50
2006,12,14,16,51,2.50
2006,12,14,16,52,2.60
2006,12,14,16,53,2.60
2006,12,14,16,54,2.60
2006,12,14,16,55,2.60
2006,12,14,16,56,2.60
2006,12,14,16,57,2.60
2006,12,14,16,58,2.60
2006,12,14,16,59,2.70
2006,12,14,17,00,2.70
2006,12,14,17,01,2.70
2006,12,14,17,02,2.70
2006,12,14,17,03,2.70
2006,12,14,17,04,2.70
2006,12,14,17,05,2.70
2006,12,14,17,06,2.80
2006,12,14,17,07,2.80
2006,12,14,17,08,2.90
2006,12,14,17,09,3.00
2006,12,14,17,10,3.10
2006,12,14,17,11,3.20
2006,12,14,17,12,3.20
2006,12,14,17,13,3.30
2006,12,14,17,14,3.40
2006,12,14,17,15,3.40
2006,12,14,17,16,3.40
2006,12,14,17,17,3.30
2006,12,14,17,18,3.30
2006,12,14,17,19,3.30
2006,12,14,17,20,3.30
2006,12,14,17,21,3.30
2006,12,14,17,22,3.30
2006,12,14,17,23,3.30
2006,12,14,17,24,3.50
2006,12,14,17,25,3.70
2006,12,14,17,26,3.80
2006,12,14,17,27,3.90
2006,12,14,17,28,4.10
2006,12,14,17,29,4.20
2006,12,14,17,30,4.30
2006,12,14,17,31,4.60
2006,12,14,17,32,5.10
2006,12,14,17,33,5.60
2006,12,14,17,34,5.90
2006,12,14,17,35,6.10
2006,12,14,17,36,6.30
2006,12,14,17,37,6.30
2006,12,14,17,38,6.40
2006,12,14,17,39,6.40
2006,12,14,17,40,6.40
2006,12,14,17,41,6.40
2006,12,14,17,42,6.50
2006,12,14,17,43,6.60
2006,12,14,17,44,6.60
2006,12,14,17,45,6.60
2006,12,14,17,46,6.60
2006,12,14,17,47,6.60
2006,12,14,17,48,6.70
2006,12,14,17,49,6.70
2006,12,14,17,50,6.70
2006,12,14,17,51,6.70
2006,12,14,17,52,6.70
2006,12,14,17,53,6.70
2006,12,14,17,54,6.70
2006,12,14,17,55,6.70
2006,12,14,17,56,6.70
2006,12,14,17,57,6.70
2006,12,14,17,58,6.70
2006,12,14,17,59,6.70
2006,12,14,18,00,6.70
2006,12,14,18,01,6.80
2006,12,14,18,02,6.80
2006,12,14,18,03,6.80
2006,12,14,18,04,6.80
2006,12,14,18,05,6.80
2006,12,14,18,06,6.80